TimeCDT,TemperatureF,Dew PointF,Humidity,Sea Level PressureIn,VisibilityMPH,Wind Direction,Wind SpeedMPH,Gust SpeedMPH,PrecipitationIn,Events,Conditions,WindDirDegrees,DateUTC
12:15 AM,44.6,37.4,76,29.63,10.0,SW,10.4,-,N/A,,Clear,230,2013-10-01 05:15:00
12:35 AM,46.4,37.4,71,29.63,10.0,SW,12.7,17.3,N/A,,Clear,230,2013-10-01 05:35:00
12:55 AM,46.4,37.4,71,29.64,10.0,SW,11.5,-,N/A,,Clear,230,2013-10-01 05:55:00
1:15 AM,46.4,35.6,66,29.64,10.0,WSW,12.7,-,N/A,,Clear,240,2013-10-01 06:15:00
1:35 AM,48.2,35.6,62,29.65,10.0,WSW,13.8,-,N/A,,Clear,250,2013-10-01 06:35:00
1:55 AM,50.0,32.0,50,29.66,10.0,West,16.1,25.3,N/A,,Clear,260,2013-10-01 06:55:00
2:15 AM,50.0,32.0,50,29.67,10.0,WSW,10.4,-,N/A,,Clear,250,2013-10-01 07:15:00
2:35 AM,48.2,32.0,54,29.68,10.0,WSW,11.5,-,N/A,,Clear,250,2013-10-01 07:35:00
2:55 AM,48.2,32.0,54,29.68,10.0,WSW,10.4,17.3,N/A,,Clear,240,2013-10-01 07:55:00
3:15 AM,46.4,32.0,57,29.68,10.0,WSW,11.5,16.1,N/A,,Clear,240,2013-10-01 08:15:00
3:35 AM,46.4,32.0,57,29.68,10.0,WSW,12.7,-,N/A,,Clear,240,2013-10-01 08:35:00
3:55 AM,46.4,32.0,57,29.69,10.0,WSW,12.7,-,N/A,,Clear,240,2013-10-01 08:55:00
4:15 AM,44.6,32.0,61,29.69,10.0,SW,11.5,-,N/A,,Clear,230,2013-10-01 09:15:00
4:35 AM,42.8,32.0,66,29.70,10.0,SW,12.7,-,N/A,,Clear,230,2013-10-01 09:35:00
4:55 AM,42.8,32.0,66,29.71,10.0,SW,11.5,17.3,N/A,,Clear,230,2013-10-01 09:55:00
5:15 AM,42.8,32.0,66,29.71,10.0,SW,11.5,-,N/A,,Clear,230,2013-10-01 10:15:00
5:35 AM,42.8,32.0,66,29.72,10.0,SW,12.7,-,N/A,,Clear,230,2013-10-01 10:35:00
5:55 AM,41.0,32.0,70,29.73,10.0,SW,11.5,-,N/A,,Clear,230,2013-10-01 10:55:00
6:15 AM,42.8,32.0,66,29.73,10.0,SW,13.8,18.4,N/A,,Clear,230,2013-10-01 11:15:00
6:35 AM,42.8,32.0,66,29.74,10.0,SW,11.5,-,N/A,,Clear,230,2013-10-01 11:35:00
6:55 AM,41.0,32.0,70,29.75,10.0,SW,11.5,-,N/A,,Clear,220,2013-10-01 11:55:00
7:15 AM,41.0,32.0,70,29.76,10.0,SW,12.7,17.3,N/A,,Clear,220,2013-10-01 12:15:00
7:35 AM,41.0,32.0,70,29.77,10.0,SW,11.5,-,N/A,,Clear,230,2013-10-01 12:35:00
7:55 AM,41.0,32.0,70,29.77,10.0,SW,12.7,-,N/A,,Clear,230,2013-10-01 12:55:00
8:15 AM,41.0,32.0,70,29.78,10.0,SW,12.7,-,N/A,,Clear,230,2013-10-01 13:15:00
8:35 AM,41.0,32.0,70,29.78,10.0,SW,12.7,-,N/A,,Clear,220,2013-10-01 13:35:00
8:55 AM,44.6,32.0,61,29.79,10.0,SW,10.4,16.1,N/A,,Clear,220,2013-10-01 13:55:00
9:15 AM,46.4,32.0,57,29.79,10.0,SW,11.5,17.3,N/A,,Clear,220,2013-10-01 14:15:00
9:35 AM,48.2,32.0,54,29.80,10.0,WSW,11.5,17.3,N/A,,Clear,240,2013-10-01 14:35:00
9:55 AM,51.8,32.0,47,29.80,10.0,West,17.3,21.9,N/A,,Clear,260,2013-10-01 14:55:00
10:15 AM,53.6,32.0,44,29.80,10.0,West,19.6,28.8,N/A,,Clear,270,2013-10-01 15:15:00
10:35 AM,53.6,32.0,44,29.81,10.0,West,19.6,27.6,N/A,,Clear,270,2013-10-01 15:35:00
10:55 AM,55.4,32.0,41,29.82,10.0,West,20.7,29.9,N/A,,Clear,270,2013-10-01 15:55:00
11:15 AM,55.4,32.0,41,29.82,10.0,West,23.0,31.1,N/A,,Clear,280,2013-10-01 16:15:00
11:35 AM,57.2,32.0,38,29.82,10.0,West,21.9,31.1,N/A,,Clear,270,2013-10-01 16:35:00
11:55 AM,57.2,32.0,38,29.83,10.0,West,23.0,32.2,N/A,,Clear,270,2013-10-01 16:55:00
12:15 PM,59.0,32.0,36,29.82,10.0,West,23.0,29.9,N/A,,Clear,270,2013-10-01 17:15:00
12:35 PM,59.0,32.0,36,29.82,10.0,WNW,20.7,27.6,N/A,,Clear,290,2013-10-01 17:35:00
12:55 PM,59.0,32.0,36,29.83,10.0,West,21.9,28.8,N/A,,Clear,270,2013-10-01 17:55:00
1:15 PM,62.6,32.0,32,29.83,10.0,West,17.3,29.9,N/A,,Clear,270,2013-10-01 18:15:00
1:35 PM,62.6,32.0,32,29.83,10.0,West,23.0,28.8,N/A,,Clear,270,2013-10-01 18:35:00
1:55 PM,62.6,32.0,32,29.82,10.0,West,24.2,28.8,N/A,,Clear,270,2013-10-01 18:55:00
2:15 PM,62.6,30.2,30,29.82,10.0,West,18.4,27.6,N/A,,Clear,280,2013-10-01 19:15:00
2:35 PM,64.4,30.2,28,29.82,10.0,West,18.4,24.2,N/A,,Clear,280,2013-10-01 19:35:00
2:55 PM,62.6,30.2,30,29.82,10.0,West,16.1,28.8,N/A,,Clear,270,2013-10-01 19:55:00
3:15 PM,64.4,28.4,26,29.82,10.0,WSW,19.6,28.8,N/A,,Clear,250,2013-10-01 20:15:00
3:35 PM,64.4,28.4,26,29.82,10.0,WSW,23.0,32.2,N/A,,Clear,240,2013-10-01 20:35:00
3:55 PM,64.4,28.4,26,29.83,10.0,West,21.9,27.6,N/A,,Clear,260,2013-10-01 20:55:00
4:15 PM,64.4,28.4,26,29.83,10.0,West,12.7,25.3,N/A,,Clear,260,2013-10-01 21:15:00
4:35 PM,64.4,26.6,24,29.82,10.0,West,18.4,27.6,N/A,,Clear,270,2013-10-01 21:35:00
4:55 PM,64.4,26.6,24,29.82,10.0,West,18.4,28.8,N/A,,Clear,270,2013-10-01 21:55:00
5:15 PM,64.4,28.4,26,29.83,10.0,West,18.4,24.2,N/A,,Clear,270,2013-10-01 22:15:00
5:35 PM,64.4,28.4,26,29.83,10.0,West,15.0,23.0,N/A,,Clear,270,2013-10-01 22:35:00
5:55 PM,64.4,26.6,24,29.83,10.0,WSW,15.0,21.9,N/A,,Clear,250,2013-10-01 22:55:00
6:15 PM,64.4,26.6,24,29.84,10.0,West,16.1,21.9,N/A,,Clear,270,2013-10-01 23:15:00
6:35 PM,62.6,24.8,24,29.84,10.0,West,12.7,20.7,N/A,,Clear,260,2013-10-01 23:35:00
6:55 PM,60.8,26.6,27,29.84,10.0,West,9.2,-,N/A,,Clear,270,2013-10-01 23:55:00
7:15 PM,59.0,26.6,29,29.85,10.0,West,8.1,-,N/A,,Clear,280,2013-10-02 00:15:00
7:35 PM,55.4,28.4,36,29.85,10.0,West,3.5,-,N/A,,Clear,280,2013-10-02 00:35:00
7:55 PM,53.6,28.4,38,29.85,10.0,West,3.5,-,N/A,,Clear,260,2013-10-02 00:55:00
8:15 PM,50.0,30.2,47,29.86,10.0,WSW,3.5,-,N/A,,Clear,250,2013-10-02 01:15:00
8:35 PM,46.4,32.0,57,29.86,10.0,WSW,3.5,-,N/A,,Unknown,240,2013-10-02 01:35:00
8:55 PM,46.4,30.2,53,29.86,10.0,Calm,Calm,-,N/A,,Clear,0,2013-10-02 01:55:00
9:15 PM,46.4,30.2,53,29.86,10.0,South,4.6,-,N/A,,Clear,190,2013-10-02 02:15:00
9:35 PM,44.6,32.0,61,29.86,10.0,Calm,Calm,-,N/A,,Clear,0,2013-10-02 02:35:00
9:55 PM,42.8,32.0,66,29.86,10.0,SSW,4.6,-,N/A,,Clear,200,2013-10-02 02:55:00
10:15 PM,39.2,32.0,75,29.86,10.0,SW,4.6,-,N/A,,Clear,220,2013-10-02 03:15:00
10:35 PM,39.2,32.0,75,29.87,10.0,SW,4.6,-,N/A,,Clear,230,2013-10-02 03:35:00
10:55 PM,39.2,32.0,75,29.87,10.0,WSW,5.8,-,N/A,,Clear,240,2013-10-02 03:55:00
11:15 PM,37.4,32.0,81,29.88,10.0,WSW,5.8,-,N/A,,Clear,240,2013-10-02 04:15:00
11:35 PM,37.4,32.0,81,29.88,10.0,Calm,Calm,-,N/A,,Clear,0,2013-10-02 04:35:00
11:55 PM,39.2,32.0,75,29.88,10.0,Calm,Calm,-,N/A,,Clear,0,2013-10-02 04:55:00